Ukiah, CA

6:55 AM PDT on July 25, 2017 (GMT -0700)
Ukiah Municipal

Weather History for KUKI - November, 2013

Change the Weather History Date:

Monday, November 4, 2013

  Actual Average Record
Temperature  
Mean Temperature 50 °F 54 °F  
Max Temperature 69 °F 68 °F 89 °F (1949)
Min Temperature 31 °F 41 °F 26 °F (1946)
Degree Days  
Heating Degree Days 15 11  
Month to date heating degree days 47 41  
Since 1 July heating degree days 242 241  
Cooling Degree Days 0 0  
Month to date cooling degree days 0 0  
Year to date cooling degree days 974 835  
Moisture  
Dew Point 31 °F    
Average Humidity 57    
Maximum Humidity 92    
Minimum Humidity 22    
Precipitation  
Precipitation 0.00 in 0.12 in 1.30 in (1906)
Month to date precipitation 0.00 0.51  
Year to date precipitation 6.16 26.64  
Since 1 July precipitation 0.58  
Snow  
Snow 0.00 in - - ()
Month to date snowfall 0.0  
Since 1 July snowfall 0.0  
Since 1 September snowfall 0.0  
Snow Depth 0.00 in    
Sea Level Pressure  
Sea Level Pressure 30.05 in    
Wind  
Wind Speed 3 mph (NNW)    
Max Wind Speed 16 mph    
Max Gust Speed 21 mph    
Visibility 10 miles    
Events      
T = Trace of Precipitation, MM = Missing Value Source: NWS Daily Summary

Daily Weather History Graph

Daily Weather History Graph

Search for Another Location

Airport or City:

Trip Planner

Search our weather history database for the weather conditions in past years. The results will help you decide how hot, cold, wet, or windy it might be!

Date:

Astronomy

Nov. 04, 2013 Rise Set
Actual Time 6:44 AM PST 5:08 PM PST
Civil Twilight 6:16 AM PST 5:36 PM PST
Nautical Twilight 5:44 AM PST 6:07 PM PST
Astronomical Twilight 5:13 AM PST 6:39 PM PST
Moon 8:00 AM PST (11/4) 6:18 PM PST (11/4)
Length of Visible Light 11h 19m
Length of Day
10h 24m
New Moon, 2% of the Moon is Illuminated
Nov 4
New Moon
Nov 9
First Quarter
Nov 17
Full
Nov 25
Last Quarter
Dec 2
New

Hourly Weather History & Observations

Time (PST) Temp. Dew Point Humidity Pressure Visibility Wind Dir Wind Speed Gust Speed Precip Events Conditions
12:56 AM 37.0 °F 32.0 °F 82% 29.99 in 10.0 mi Calm Calm - N/A   Clear
1:56 AM 37.0 °F 32.0 °F 82% 29.99 in 10.0 mi Calm Calm - N/A   Clear
2:56 AM 33.1 °F 30.0 °F 89% 29.98 in 10.0 mi Calm Calm - N/A   Clear
3:56 AM 34.0 °F 30.0 °F 85% 29.98 in 10.0 mi Calm Calm - N/A   Clear
4:56 AM 34.0 °F 30.0 °F 85% 30.01 in 10.0 mi Calm Calm - N/A   Clear
5:56 AM 30.9 °F 28.9 °F 92% 30.03 in 10.0 mi Calm Calm - N/A   Clear
6:56 AM 34.0 °F 30.0 °F 85% 30.04 in 10.0 mi Calm Calm - N/A   Clear
7:56 AM 36.0 °F 30.9 °F 82% 30.07 in 10.0 mi Calm Calm - N/A   Clear
8:56 AM 46.9 °F 32.0 °F 56% 30.08 in 10.0 mi NW 4.6 mph - N/A   Clear
9:56 AM 55.9 °F 28.9 °F 36% 30.06 in 10.0 mi North 4.6 mph - N/A   Clear
10:56 AM 60.1 °F 28.0 °F 30% 30.06 in 10.0 mi North 4.6 mph - N/A   Clear
11:56 AM 64.9 °F 27.0 °F 24% 30.04 in 10.0 mi NW 9.2 mph - N/A   Clear
12:56 PM 66.9 °F 26.1 °F 21% 30.02 in 10.0 mi NNW 9.2 mph - N/A   Clear
1:56 PM 68.0 °F 28.0 °F 22% 30.00 in 10.0 mi NW 12.7 mph 18.4 mph N/A   Clear
2:56 PM 68.0 °F 30.0 °F 24% 30.00 in 10.0 mi WNW 12.7 mph 17.3 mph N/A   Clear
3:56 PM 64.9 °F 30.0 °F 27% 30.02 in 10.0 mi WNW 11.5 mph - N/A   Clear
4:56 PM 61.0 °F 34.0 °F 36% 30.05 in 10.0 mi North 4.6 mph - N/A   Clear
5:56 PM 57.9 °F 35.1 °F 42% 30.07 in 10.0 mi North 4.6 mph - N/A   Clear
6:56 PM 53.1 °F 34.0 °F 48% 30.10 in 10.0 mi South 3.5 mph - N/A   Clear
7:56 PM 50.0 °F 35.1 °F 57% 30.10 in 10.0 mi Calm Calm - N/A   Clear
8:56 PM 45.0 °F 34.0 °F 65% 30.12 in 10.0 mi Calm Calm - N/A   Clear
9:56 PM 45.0 °F 34.0 °F 65% 30.13 in 9.0 mi Calm Calm - N/A   Clear
10:56 PM 42.1 °F 33.1 °F 70% 30.14 in 10.0 mi Calm Calm - N/A   Clear
11:56 PM 42.1 °F 34.0 °F 73% 30.14 in 9.0 mi Calm Calm - N/A   Clear